Temp
26 27 31 34 33 38 36 36 37 35 36 37 36 34 33 32 32 30 31 30 29 27 24 23 22 21 21 21 21 21 21 21 21 21 21 21 21 21 21 21 21 21 21 21 21 21 21 21 21
31 31 32 36 37 36 36 37 36 36 36 36 35 35 32 31 33 32 31 29 29 27 26 24 21 21 21 21 21 21 21 21 21 21 21 21 21 21 21 22 21 21 21 21 21 21 21 21 21
29 32 36 39 38 36 35 36 35 35 36 36 34 35 34 31 33 32 30 29 29 28 27 23 21 21 21 21 21 21 21 21 21 21 21 21 21 21 21 21 22 21 21 21 21 21 21 21 21
35 38 38 38 36 37 36 36 36 36 36 36 36 32 31 32 32 31 30 30 30 29 27 22 21 21 21 21 21 21 21 21 21 21 21 21 21 21 21 21 21 21 21 21 21 21 21 21 21
36 39 38 37 36 37 37 37 37 36 35 36 36 32 30 31 31 30 30 30 30 29 25 23 21 21 21 21 21 21 21 21 21 21 21 21 21 21 22 21 21 21 21 21 21 21 21 21 21
38 41 38 36 37 38 37 38 37 36 35 35 34 32 31 31 31 30 30 31 30 30 27 23 21 21 21 21 21 21 21 21 21 21 21 21 21 21 22 21 21 22 21 21 21 21 21 21 21
39 39 38 37 37 36 37 38 37 36 36 35 35 32 32 32 31 31 31 31 30 30 28 25 24 22 21 21 21 21 21 21 21 21 21 21 21 21 21 22 21 21 22 21 21 21 21 21 21
41 40 38 38 37 35 37 37 37 37 34 36 35 32 31 32 31 31 31 30 30 29 28 27 26 25 25 23 23 22 21 22 21 21 22 23 22 23 23 22 21 21 21 21 22 21 21 21 21
41 39 38 38 37 36 38 37 36 37 36 35 35 35 33 31 31 31 31 30 29 28 28 29 28 27 26 24 23 23 22 22 22 22 22 23 23 23 24 22 22 21 21 21 21 21 21 21 21
40 39 38 40 39 37 37 36 36 36 35 34 33 34 32 31 31 31 31 30 29 29 28 29 29 28 27 27 25 24 24 22 22 22 22 23 24 23 24 24 23 23 22 22 21 21 21 22 24
40 38 39 39 39 38 37 37 37 37 35 35 33 33 33 32 32 32 32 31 31 30 29 28 28 28 28 27 27 26 24 24 23 22 23 23 24 24 23 23 24 24 23 24 23 22 23 25 25
39 40 39 39 39 39 37 37 36 35 35 36 34 34 33 33 33 33 33 32 32 30 30 29 27 27 27 27 27 27 27 25 24 23 23 23 24 24 23 24 24 24 25 24 25 25 24 25 24
40 39 39 39 39 38 38 36 35 34 35 35 35 34 34 34 33 33 33 32 32 31 29 29 28 26 26 26 27 27 27 25 24 23 24 24 22 22 23 23 24 24 24 24 24 24 24 23 24
40 40 39 39 38 38 37 36 36 34 35 35 34 35 35 35 34 33 33 32 31 30 30 29 28 26 26 25 25 26 27 25 24 23 23 23 22 22 22 22 24 25 24 24 24 23 23 23 23
40 39 39 38 38 38 25 23 35 35 35 34 35 35 35 34 33 33 32 32 31 30 29 29 28 27 26 25 25 26 27 25 25 24 24 24 23 23 23 22 23 25 24 23 23 23 23 24 24
40 40 34 38 38 37 37 28 35 36 35 35 35 35 34 34 34 32 32 30 26 28 29 29 29 28 27 27 26 26 26 25 25 24 24 24 24 23 23 23 23 24 24 23 25 24 24 23 24
40 34 36 38 39 38 37 36 36 36 36 35 35 35 35 23 22 29 32 32 30 29 28 28 28 28 28 26 27 27 26 27 26 26 25 25 25 24 23 23 24 23 24 24 24 24 24 24 25
36 37 39 38 38 38 38 38 36 36 36 36 36 36 35 30 24 27 33 32 32 29 28 28 28 28 27 27 26 27 27 27 27 27 28 26 26 26 25 26 27 26 26 25 25 24 24 24 25
39 39 38 39 39 38 38 38 37 37 36 36 35 35 35 34 34 33 33 33 32 31 28 28 28 27 26 26 27 27 27 27 28 27 27 27 26 26 25 26 26 26 26 25 25 26 25 26 26
39 39 39 39 38 38 39 38 39 37 37 37 36 35 34 34 34 33 33 33 33 32 30 28 28 27 26 27 28 27 28 28 27 27 27 27 26 25 25 26 27 27 26 26 26 25 26 28 29
40 40 39 38 38 39 39 38 35 37 37 37 37 36 34 35 34 34 33 33 33 32 30 28 27 27 26 27 27 27 27 27 28 28 28 27 27 26 25 25 25 26 25 27 27 25 26 28 29
38 39 39 38 38 25 32 36 29 37 35 35 35 34 34 35 34 34 34 33 33 32 31 29 27 27 27 26 28 28 28 26 26 27 28 28 27 27 26 26 26 24 25 26 26 26 26 26 27
39 39 39 39 38 39 39 38 36 36 36 35 35 34 35 35 35 34 34 33 33 32 30 28 26 26 27 26 26 27 27 28 27 27 26 26 26 26 26 26 26 24 24 26 25 25 25 24 24
40 39 39 39 39 38 38 38 38 36 38 36 34 34 34 34 33 33 33 31 32 31 30 29 26 25 25 25 25 25 26 26 27 26 25 26 27 27 26 25 25 25 25 24 24 24 25 24 24
39 39 37 35 36 36 40 38 38 38 36 35 34 33 33 32 33 33 32 32 31 30 30 28 26 26 25 25 25 25 25 25 25 25 27 26 27 26 25 24 24 24 24 24 23 24 24 24 24
38 39 38 33 36 37 39 38 37 38 36 35 35 34 33 32 33 32 32 31 30 30 30 29 27 27 26 25 24 24 24 25 26 26 24 24 24 23 23 23 23 23 23 23 24 24 24 24 24
39 38 41 39 40 39 40 38 36 36 35 35 34 33 33 32 32 31 29 27 26 25 26 25 25 23 24 23 23 23 23 23 24 23 23 23 22 22 22 22 21 22 23 23 23 24 24 23 24
39 40 39 39 36 36 38 36 33 34 34 34 34 33 33 32 31 30 30 29 28 27 26 26 25 25 24 24 23 23 23 22 22 22 22 22 22 21 21 21 21 21 21 22 22 23 24 23 23
38 38 39 40 38 38 37 28 32 36 36 34 34 34 33 32 31 31 29 28 28 28 27 26 26 25 25 24 22 22 22 22 23 22 21 21 20 20 20 20 20 21 21 22 21 22 22 23 23
40 40 40 39 37 32 34 33 39 39 38 36 35 34 33 31 31 31 29 29 28 28 27 26 26 25 24 22 22 22 22 21 22 21 20 20 19 19 19 20 20 20 21 21 21 22 22 23 23
Height
746 745 744 739 756 733 756 756 734 751 748 736 739 752 760 763 771 793 780 787 794 802 808 812 814 816 817 817 819 819 820 821 822 822 823 823 824 824 825 825 826 827 827 828 829 830 831 832 833
746 744 742 728 746 764 767 746 754 749 745 742 745 748 762 775 764 772 781 791 797 803 809 813 815 817 819 820 821 822 822 823 824 825 825 825 826 827 827 828 828 829 830 830 831 832 833 834 834
745 741 733 733 747 771 773 755 756 750 743 743 755 750 758 778 772 777 787 793 797 804 808 814 816 819 821 822 823 824 825 825 826 826 827 827 828 828 829 829 829 831 831 833 833 834 834 836 837
740 732 727 749 766 755 756 753 749 750 748 746 748 771 774 773 776 783 791 794 799 803 809 816 819 821 823 824 825 826 827 827 828 828 828 828 829 830 831 831 832 833 834 834 835 835 837 838 838
735 722 746 761 764 752 748 745 744 754 754 751 749 775 781 779 782 789 794 795 800 803 813 818 820 823 825 826 827 828 828 829 829 830 830 830 830 832 832 833 833 835 835 835 837 838 839 839 840
736 719 757 771 766 749 748 739 741 751 754 759 765 775 783 784 787 791 794 797 802 804 815 819 821 824 825 827 828 829 830 831 831 831 831 831 831 832 833 835 835 835 837 838 838 839 840 841 842
733 741 758 759 764 765 755 739 749 750 755 761 757 780 783 785 790 793 796 799 803 807 814 821 823 825 826 828 829 830 831 832 833 832 832 833 833 833 834 836 837 837 838 839 840 841 842 841 842
723 729 753 751 764 775 751 749 745 749 764 757 758 780 787 786 791 794 797 802 805 809 814 818 822 825 826 826 828 830 832 833 834 834 833 833 833 833 834 836 838 838 839 839 840 842 842 842 842
722 746 761 759 764 766 744 753 753 747 757 762 757 761 776 788 792 795 798 803 809 813 816 814 817 822 825 825 828 830 832 833 834 834 834 833 833 834 835 836 837 838 838 839 840 841 841 842 842
733 751 761 740 745 757 753 755 755 758 763 770 772 773 783 789 792 794 798 802 808 812 816 814 815 819 824 825 827 830 830 831 833 833 834 834 834 835 835 835 834 835 836 837 839 839 840 840 840
734 758 743 742 742 746 751 754 747 751 765 764 776 778 782 787 790 792 796 799 804 809 813 816 818 821 821 824 826 826 828 830 832 833 834 834 833 833 834 834 833 834 835 835 836 837 838 838 837
749 743 742 746 742 746 757 751 761 759 761 758 768 775 781 785 787 790 793 796 800 806 811 814 819 821 822 823 826 826 826 828 832 833 834 833 832 832 833 833 834 834 835 835 836 836 837 836 836
741 745 742 743 743 751 752 764 770 770 761 764 770 776 779 781 784 787 790 795 799 804 809 813 816 822 824 826 825 826 827 829 830 833 834 833 833 834 834 833 833 833 834 835 835 836 836 836 836
736 741 744 743 747 751 762 764 764 774 766 768 772 773 773 776 779 786 790 794 799 804 808 811 817 820 823 825 827 827 827 828 830 831 833 833 832 833 833 833 832 831 832 832 832 833 834 834 833
736 753 746 745 748 756 784 818 775 766 768 772 772 771 773 776 778 783 788 793 799 802 807 809 815 819 822 824 826 826 824 825 828 830 831 832 831 831 831 831 832 831 831 830 831 831 831 831 830
743 741 782 752 748 751 761 798 780 764 768 772 770 772 776 775 773 776 785 793 797 800 805 810 812 815 819 821 824 824 824 825 825 826 828 829 830 829 829 830 830 830 828 829 829 828 828 828 828
742 791 775 758 741 749 761 767 768 759 764 771 769 772 775 784 783 780 784 788 794 799 806 809 812 813 815 820 822 823 824 824 825 826 824 824 825 826 828 827 827 827 828 828 828 828 827 828 826
772 768 757 761 752 752 754 757 759 759 761 765 765 764 769 779 784 777 780 786 789 798 804 808 810 813 816 818 822 821 822 822 822 823 823 823 823 825 826 824 825 827 826 827 826 827 827 826 825
750 753 760 748 745 757 753 752 753 755 758 761 765 766 769 773 774 777 781 785 788 793 803 807 809 813 816 818 819 821 821 821 821 821 822 823 824 825 825 824 822 824 824 825 825 825 824 823 821
749 756 754 749 746 753 749 757 746 752 755 754 761 765 770 772 772 778 781 783 784 790 800 806 809 813 816 816 816 818 818 818 819 820 821 822 822 823 822 822 820 819 822 823 823 824 822 819 817
747 749 756 760 750 750 755 763 770 750 750 750 753 760 766 766 771 773 778 780 783 788 798 804 808 812 815 815 816 817 818 818 817 817 817 817 820 820 820 819 819 819 820 819 820 821 821 817 815
767 745 750 754 764 837 778 787 792 749 758 759 760 767 767 765 770 773 775 779 783 788 795 802 807 810 812 814 813 814 814 817 817 815 815 816 818 818 818 818 817 818 818 817 818 817 817 817 816
753 742 747 749 754 754 749 760 765 751 760 763 761 764 762 764 767 772 774 780 783 790 795 802 806 809 810 812 812 813 815 814 815 815 815 816 816 815 816 816 816 816 815 812 812 814 815 816 817
737 749 747 745 746 768 752 758 756 763 748 755 762 764 764 766 770 774 778 785 787 791 796 800 806 809 811 812 814 815 815 815 814 815 815 814 811 810 811 811 813 813 812 811 811 811 812 812 812
749 755 777 796 786 782 737 758 755 742 746 754 765 766 767 773 774 776 781 784 787 792 795 801 805 808 810 811 813 814 815 815 815 814 810 810 809 809 809 810 810 809 810 810 809 809 808 808 807
752 748 769 821 785 773 741 765 758 738 745 751 755 762 766 772 774 777 780 785 789 793 795 798 804 806 809 811 813 814 814 813 812 811 813 813 811 812 811 811 810 808 807 807 806 805 804 803 802
742 759 729 748 734 753 741 740 743 743 750 753 758 764 768 772 774 780 787 792 796 798 800 805 807 809 811 812 813 814 814 814 812 814 814 813 813 811 811 811 810 808 807 805 804 801 799 798 797
732 725 755 748 783 784 751 759 764 763 759 754 760 764 767 770 777 784 788 793 797 801 805 807 810 812 813 813 814 815 815 815 815 814 813 814 813 812 811 810 808 807 805 803 802 799 797 795 793
745 751 744 735 751 763 766 813 762 750 748 753 755 759 765 772 780 786 792 796 800 803 807 808 811 813 814 815 816 816 815 815 814 813 813 813 812 812 811 809 808 806 804 802 800 798 795 793 791
718 728 727 752 762 777 775 784 727 727 728 741 749 758 764 774 781 787 793 797 801 804 807 810 812 814 815 816 816 815 815 814 813 813 812 812 811 810 809 808 806 804 802 800 798 796 794 791 788
Wind_Speed
5 7 10 9 6 6 11 8 9 10 14 13 6 9 11 13 12 9 27 23 24 23 20 18 14 14 13 13 13 14 14 13 12 11 10 9 8 9 9 9 9 12 12 13 13 14 15 14 14
10 7 12 7 3 10 12 15 15 15 12 10 8 7 14 16 11 20 21 24 23 23 20 18 16 14 12 12 12 12 12 11 11 11 9 8 8 9 9 10 11 10 11 12 12 13 13 13 13
8 10 6 6 9 12 12 14 12 9 4 7 8 13 9 8 19 17 28 25 24 21 20 18 17 14 12 11 11 11 11 10 10 10 9 8 8 7 9 9 10 8 11 10 11 11 12 12 12
8 6 6 10 13 16 15 10 8 9 9 8 7 13 9 15 18 25 25 22 22 21 21 19 16 14 11 11 10 10 9 9 9 10 10 9 7 7 7 8 8 9 9 10 10 11 11 11 11
15 7 7 12 13 13 14 8 8 9 6 9 12 17 15 12 15 26 23 21 20 22 18 17 15 13 10 9 9 8 8 8 8 8 9 9 8 7 7 7 6 7 7 9 10 9 10 10 11
8 1 6 11 11 13 12 6 9 11 10 12 16 15 12 14 23 23 21 19 17 19 17 14 13 11 10 8 7 7 6 6 6 6 7 8 8 7 7 6 6 6 6 8 8 8 9 9 8
10 8 7 10 13 10 11 8 9 8 12 13 10 15 14 17 21 21 19 18 15 16 17 13 11 10 9 7 5 4 4 4 4 4 4 4 4 6 5 5 6 5 4 6 6 7 8 8 7
4 1 10 8 16 12 7 11 9 10 15 7 8 9 16 19 20 20 17 16 12 13 12 14 12 10 9 10 7 4 3 2 1 2 3 2 2 3 4 4 4 4 5 4 5 6 6 8 7
7 3 11 16 13 10 4 13 7 9 12 10 10 22 22 22 20 19 17 15 12 11 9 12 14 9 4 4 6 2 4 2 1 1 2 3 5 2 0 3 2 4 4 5 5 5 5 7 8
8 12 11 14 15 11 10 10 7 8 11 11 12 18 23 21 19 18 16 16 14 12 11 7 9 10 7 7 4 4 6 6 2 1 3 2 0 1 2 2 3 5 7 7 8 8 8 8 12
4 10 8 17 15 10 11 10 6 2 9 12 16 17 20 21 18 17 15 16 15 13 13 9 4 6 8 5 3 9 12 4 2 1 3 5 4 3 3 5 3 5 6 9 10 9 8 11 12
11 7 8 10 7 12 10 13 14 12 11 17 17 19 17 17 15 15 14 14 14 13 12 11 11 7 5 3 5 4 6 4 3 2 2 2 2 2 3 1 2 4 2 5 7 5 9 8 8
11 9 7 6 9 9 10 14 13 13 14 18 18 15 16 15 14 15 13 14 11 13 12 9 11 9 8 6 3 2 2 2 3 0 3 5 6 4 3 3 2 3 3 5 6 9 9 8 11
6 9 9 8 8 7 11 6 13 11 14 16 15 15 14 16 16 14 10 12 10 9 11 12 10 10 9 7 5 4 4 6 4 2 0 2 2 1 4 4 3 3 3 6 4 6 7 7 9
9 9 9 8 7 6 36 23 12 15 14 14 13 11 10 12 16 17 16 11 13 10 11 11 11 12 10 8 7 7 8 9 6 2 3 1 3 3 5 7 3 2 2 4 4 5 6 6 7
14 14 9 7 6 6 7 14 14 15 13 13 12 11 10 7 14 15 14 9 5 14 7 8 11 12 12 10 8 9 4 6 7 5 7 4 5 8 8 8 7 5 5 3 5 5 2 5 4
11 8 18 10 6 1 6 12 15 13 13 12 12 11 9 20 18 14 10 10 14 13 10 10 10 11 11 10 9 8 9 8 8 10 14 6 4 6 12 10 8 5 6 3 5 6 4 5 7
16 17 6 2 8 5 8 3 11 11 10 13 12 11 10 20 20 20 11 9 14 14 12 10 12 12 11 9 9 10 9 10 9 10 7 8 10 7 8 12 5 5 9 5 4 5 6 8 7
11 7 5 4 6 6 9 3 13 12 12 11 11 9 7 6 4 6 4 8 12 15 12 13 13 14 13 11 10 9 8 8 8 8 8 4 6 7 8 11 11 6 6 6 5 9 9 7 9
4 11 7 4 4 8 6 8 8 13 13 13 13 9 7 8 9 8 10 11 15 15 14 14 13 13 13 11 10 8 9 9 9 7 7 6 6 8 9 10 11 8 8 9 7 7 9 10 8
15 8 7 3 6 9 10 11 10 12 10 9 7 10 9 10 9 8 9 11 12 13 14 14 13 12 12 11 9 8 9 8 7 9 9 11 8 8 10 10 12 8 9 11 9 9 10 11 10
5 7 3 8 11 11 34 3 22 17 11 9 9 8 10 8 7 6 11 10 12 11 14 13 13 12 12 12 12 10 9 8 9 8 8 3 5 9 11 12 12 12 12 11 12 14 12 9 13
4 6 7 8 14 7 10 7 13 12 11 10 9 10 9 9 10 8 7 10 9 10 11 12 11 13 11 13 12 9 11 10 8 9 11 7 12 12 14 14 14 14 14 15 14 12 12 12 13
7 10 10 11 14 11 5 3 4 9 4 12 9 9 6 6 5 5 8 9 6 8 9 11 10 11 11 10 10 9 4 5 7 5 7 12 13 11 9 7 13 14 16 16 12 12 12 13 16
11 17 11 8 4 12 5 3 10 10 11 10 12 11 10 7 7 8 8 10 8 4 9 9 9 9 7 9 10 9 6 4 5 5 9 9 10 11 13 10 10 12 13 12 13 13 13 14 15
15 19 11 9 11 3 8 1 8 12 13 11 12 12 10 11 8 8 8 7 6 6 3 5 9 8 8 7 5 5 7 10 7 4 7 10 10 8 9 9 10 11 11 11 12 12 14 16 15
17 13 19 17 15 7 6 16 13 14 15 13 11 10 10 12 10 10 13 12 11 13 10 8 6 8 5 6 4 1 2 4 5 6 6 6 7 9 11 11 11 11 11 10 12 14 16 15 15
18 7 12 9 11 8 4 3 4 13 15 15 14 14 15 14 13 11 12 14 14 13 12 10 8 6 6 4 3 3 1 3 5 6 7 9 10 10 12 13 13 14 13 10 11 13 13 13 15
14 14 14 17 9 6 10 2 11 13 15 14 15 15 16 16 14 12 14 13 12 13 11 10 8 6 4 3 3 3 3 5 5 7 8 9 10 11 12 12 12 12 13 12 12 14 15 15 14
9 10 17 11 17 7 15 11 6 5 15 15 16 15 16 15 14 13 14 14 13 12 11 9 7 6 4 4 3 4 5 6 7 7 8 10 11 11 12 12 13 13 12 12 13 14 15 17 16
Wind_Direction
226 223 244 259 247 65 71 66 60 66 66 74 51 66 79 46 34 90 134 130 132 134 136 133 132 120 115 110 96 101 97 94 93 93 91 90 86 78 78 99 102 101 99 103 104 107 110 110 108
264 275 251 259 20 65 52 38 52 57 63 82 64 100 77 66 92 121 122 135 137 134 138 137 138 126 119 111 105 99 97 96 92 89 89 86 80 78 86 107 100 101 106 107 110 111 111 111 108
269 270 265 41 41 59 69 72 73 83 98 44 99 38 40 97 117 123 128 139 131 138 136 142 136 129 124 115 108 101 97 93 89 83 74 79 79 83 85 85 97 94 111 108 108 114 116 114 114
269 206 251 60 68 67 65 81 78 114 88 39 116 91 82 104 128 122 137 142 136 139 132 145 141 134 132 122 115 110 102 93 87 81 69 76 78 79 88 88 91 100 111 116 116 119 124 124 126
238 265 100 80 59 58 75 73 55 85 54 45 74 90 105 94 116 135 141 141 131 132 132 144 143 140 138 131 130 122 113 99 85 77 73 71 80 88 97 83 108 102 107 124 123 126 126 133 132
274 295 65 66 60 66 65 8 88 82 89 97 107 91 94 122 132 141 144 138 141 126 138 147 150 146 145 145 143 132 118 107 93 79 72 73 80 88 97 93 88 108 105 113 128 138 140 139 138
264 67 30 96 84 64 61 27 30 75 96 69 115 106 117 137 139 144 147 134 149 128 139 150 155 155 152 159 153 136 128 101 89 78 71 75 87 96 103 111 108 102 111 129 128 140 149 156 157
303 118 91 56 73 56 53 63 36 30 74 102 26 143 143 134 147 145 147 141 145 133 137 149 155 160 181 177 158 166 179 151 125 45 48 41 141 113 95 121 125 118 126 123 145 153 171 177 183
265 48 55 58 71 102 58 80 67 109 97 78 9 135 126 146 149 152 148 147 149 151 166 165 155 162 179 154 164 143 189 191 218 155 317 17 283 178 246 163 179 171 166 169 169 174 188 203 210
278 67 70 61 68 85 64 72 117 120 130 113 91 104 133 150 155 159 160 157 165 169 167 199 155 158 169 199 125 189 191 196 241 249 294 293 342 307 216 217 259 209 201 204 196 200 212 222 229
16 79 87 68 69 84 88 79 61 146 101 136 129 136 149 156 164 163 169 165 169 174 165 185 204 171 173 133 225 196 154 182 283 255 282 266 258 228 211 252 227 195 212 230 212 212 216 226 264
109 78 70 94 126 83 86 81 73 74 89 117 134 140 149 162 169 164 174 163 165 172 168 187 172 183 246 167 191 173 170 120 168 189 272 277 271 356 349 51 151 236 211 254 237 235 256 261 266
104 100 118 125 110 95 85 76 84 90 110 128 130 140 150 159 165 160 172 156 175 169 170 173 172 189 196 219 225 251 235 89 145 121 326 338 1 18 326 337 252 254 239 243 249 248 249 244 251
107 100 124 161 115 113 108 109 107 113 128 134 149 152 162 152 164 146 153 150 166 167 166 167 187 185 193 201 213 231 208 174 196 250 46 327 288 304 316 323 314 228 236 248 271 261 257 251 252
154 148 159 154 160 130 75 323 117 140 141 142 162 177 163 173 153 165 157 160 159 182 177 165 186 188 193 197 202 211 221 150 168 152 128 88 267 242 273 281 295 327 283 296 261 246 243 248 250
221 186 79 154 172 161 175 205 141 149 149 156 159 172 178 181 185 146 167 132 270 137 159 193 188 186 188 193 195 223 225 212 192 220 214 235 257 246 259 259 249 246 277 274 281 238 225 271 252
217 111 266 134 185 333 261 135 154 164 169 166 170 184 202 67 350 265 183 177 174 145 163 195 192 193 178 189 200 221 208 211 208 221 208 199 219 213 236 229 236 223 258 292 292 329 327 316 272
299 165 158 350 147 233 258 160 148 180 191 167 207 197 192 149 184 279 185 197 163 153 173 196 192 192 188 185 205 232 215 229 209 218 221 167 233 197 221 231 217 238 238 258 276 309 301 279 290
262 14 291 109 90 276 262 285 148 182 199 203 219 199 197 219 194 205 231 220 201 164 179 192 197 188 190 195 200 219 253 266 223 218 204 205 238 233 232 262 218 221 278 206 255 268 247 280 248
244 243 218 114 202 236 208 245 157 181 203 205 190 192 218 206 203 195 202 218 214 181 187 197 197 191 200 199 215 221 225 230 218 229 214 232 222 235 240 245 270 226 258 249 247 261 296 279 257
243 273 31 292 197 232 286 223 336 179 196 206 194 187 215 219 220 180 198 193 211 182 185 192 197 198 208 225 212 210 256 253 247 236 238 224 229 249 256 262 255 263 249 261 256 241 251 276 290
85 316 250 265 259 108 258 171 207 167 173 185 188 206 215 210 186 202 169 185 195 189 184 193 199 204 206 213 226 225 251 252 301 307 235 234 275 269 271 268 261 266 257 260 254 251 249 279 291
323 314 288 246 269 301 211 265 147 144 157 173 180 191 199 178 177 177 176 170 194 184 167 186 198 200 212 213 236 228 230 248 257 280 316 291 267 257 261 263 267 269 264 257 251 270 274 268 260
305 269 241 238 248 259 151 27 136 154 77 128 155 186 157 154 157 159 157 150 178 173 186 184 183 202 210 214 219 238 259 280 291 273 291 272 270 257 224 264 262 265 270 278 278 268 266 256 256
222 244 231 297 225 290 92 319 82 90 97 144 165 168 160 143 162 142 164 169 150 160 174 164 178 181 196 202 210 220 230 254 273 286 284 329 293 326 343 333 302 281 272 272 271 267 267 266 263
219 249 268 214 290 85 184 225 106 112 128 136 152 165 175 161 162 146 128 142 164 172 174 166 171 200 206 180 173 222 255 272 279 326 323 309 313 329 335 327 327 313 292 285 282 281 273 267 260
235 224 275 301 284 240 245 107 107 129 146 155 148 151 162 152 156 117 104 92 85 77 87 88 104 95 109 108 156 161 303 304 332 326 319 336 331 330 327 326 325 316 312 293 280 279 289 282 266
265 328 234 226 257 280 296 85 39 166 162 165 157 158 151 149 130 132 129 129 122 119 115 112 110 104 112 123 136 125 20 354 339 331 325 323 319 320 318 317 322 320 315 311 304 293 293 295 284
207 242 253 279 262 276 252 199 224 174 166 167 165 158 154 145 145 141 128 127 122 121 123 117 112 106 92 69 29 9 351 336 329 333 327 324 320 318 314 312 309 307 306 306 310 304 301 293 293
284 260 231 226 234 29 318 144 146 118 153 157 161 158 152 150 150 144 140 139 133 128 122 110 102 97 67 38 8 355 349 343 343 334 330 326 322 319 313 310 308 308 307 305 301 296 294 294 301